| time (UTC) | temp F | wind direction | speed MPH | gust MPH | rain 1hr in | rain 24hr in | rain mn in | humidity % | barometer mb |
| 20260904210043 | 69 | 0.0 | 0.0 | 0.00 | 0.05 | 0.05 | 86 | 1013.1 | |
| 20260904204512 | 69 | 0.0 | 0.0 | 0.00 | 0.05 | 0.05 | 86 | 1013.0 | |
| 20260904203012 | 69 | 0.0 | 0.0 | 0.00 | 0.05 | 0.05 | 87 | 1012.9 | |
| 20260904201505 | 69 | 0.0 | 0.0 | 0.00 | 0.05 | 0.05 | 87 | 1012.5 | |
| 20260904200004 | 68 | 0.0 | 0.0 | 0.00 | 0.05 | 0.05 | 88 | 1012.8 | |
| 20260904194501 | 68 | 0.0 | 0.0 | 0.00 | 0.05 | 0.05 | 88 | 1013.0 | |
| 20260904193123 | 67 | 0.0 | 0.0 | 0.00 | 0.05 | 0.05 | 88 | 1013.1 | |
| 20260904191558 | 67 | 0.0 | 0.0 | 0.00 | 0.05 | 0.05 | 89 | 1012.9 | |
| 20260904190058 | 66 | 0.0 | 0.0 | 0.01 | 0.05 | 0.05 | 91 | 1013.2 | |
| 20260904184556 | 67 | 0.0 | 0.0 | 0.01 | 0.05 | 0.05 | 91 | 1013.1 | |
| 20260904183056 | 66 | 0.0 | 0.0 | 0.01 | 0.05 | 0.05 | 92 | 1012.9 | |
| 20260904181535 | 66 | 0.0 | 0.0 | 0.01 | 0.05 | 0.05 | 93 | 1013.1 | |
| 20260904180032 | 66 | 0.0 | 0.0 | 0.00 | 0.04 | 0.04 | 93 | 1012.8 | |
| 20260904174533 | 67 | 0.0 | 0.0 | 0.00 | 0.04 | 0.04 | 93 | 1012.2 | |
| 20260904173047 | 66 | 0.0 | 0.0 | 0.00 | 0.04 | 0.04 | 94 | 1012.0 | |
| 20260904171531 | 66 | 0.0 | 0.0 | 0.00 | 0.04 | 0.04 | 95 | 1012.5 | |
| 20260904170030 | 66 | 0.0 | 0.0 | 0.00 | 0.04 | 0.04 | 96 | 1012.5 | |
| 20260904164507 | 65 | 0.0 | 0.0 | 0.00 | 0.04 | 0.04 | 97 | 1012.1 | |
| 20260904163006 | 65 | 0.0 | 0.0 | 0.00 | 0.04 | 0.04 | 97 | 1012.3 | |
| 20260904161515 | 65 | 0.0 | 0.0 | 0.00 | 0.04 | 0.04 | 97 | 1012.3 | |
| 20260904160014 | 64 | 0.0 | 0.0 | 0.00 | 0.04 | 0.04 | 97 | 1012.2 | |
| 20260904154512 | 64 | 0.0 | 0.0 | 0.00 | 0.04 | 0.04 | 97 | 1011.9 | |
| 20260904153013 | 64 | 0.0 | 0.0 | 0.00 | 0.04 | 0.04 | 98 | 1012.0 | |
| 20260904151511 | 64 | 0.0 | 0.0 | 0.00 | 0.04 | 0.04 | 98 | 1011.7 | |
| 20260904150011 | 63 | 0.0 | 0.0 | 0.00 | 0.04 | 0.04 | 97 | 1011.4 | |
| 20260904144508 | 63 | 0.0 | 0.0 | 0.00 | 0.04 | 0.04 | 97 | 1011.4 | |
| 20260904143007 | 63 | 0.0 | 0.0 | 0.00 | 0.04 | 0.04 | 97 | 1011.3 | |
| 20260904141506 | 63 | 0.0 | 0.0 | 0.00 | 0.04 | 0.04 | 97 | 1011.0 | |
| 20260904140005 | 64 | 0.0 | 0.0 | 0.00 | 0.04 | 0.04 | 98 | 1010.8 | |
| 20260904134504 | 64 | 0.0 | 0.0 | 0.00 | 0.04 | 0.04 | 98 | 1010.9 | |
| 20260904133004 | 64 | 0.0 | 0.0 | 0.01 | 0.04 | 0.04 | 98 | 1010.8 | |
| 20260904131545 | 63 | 0.0 | 0.0 | 0.01 | 0.04 | 0.04 | 98 | 1010.5 | |
| 20260904130040 | 63 | 0.0 | 0.0 | 0.01 | 0.04 | 0.04 | 98 | 1010.5 | |
| 20260904124535 | 63 | 0.0 | 0.0 | 0.01 | 0.04 | 0.04 | 98 | 1010.3 | |
| 20260904123034 | 63 | 0.0 | 0.0 | 0.00 | 0.03 | 0.03 | 98 | 1010.2 | |
| 20260904120048 | 63 | 0.0 | 0.0 | 0.00 | 0.03 | 0.03 | 97 | 1010.0 | |
| 20260904114550 | 64 | 0.0 | 0.0 | 0.00 | 0.03 | 0.03 | 98 | 1009.8 | |
| 20260904113047 | 64 | 0.0 | 0.0 | 0.00 | 0.03 | 0.03 | 98 | 1009.3 | |
| 20260904110045 | 63 | 0.0 | 0.0 | 0.00 | 0.03 | 0.03 | 97 | 1009.0 | |
| 20260904104544 | 63 | 0.0 | 0.0 | 0.00 | 0.03 | 0.03 | 97 | 1008.9 | |
| 20260904103043 | 63 | 0.0 | 0.0 | 0.00 | 0.03 | 0.03 | 97 | 1008.5 | |
| 20260904100042 | 63 | 0.0 | 0.0 | 0.01 | 0.03 | 0.03 | 97 | 1008.4 | |
| 20260904094540 | 63 | 0.0 | 0.0 | 0.01 | 0.03 | 0.03 | 97 | 1008.3 | |
| 20260904093040 | 63 | 0.0 | 0.0 | 0.01 | 0.03 | 0.03 | 97 | 1008.8 | |
| 20260904090041 | 64 | 0.0 | 0.0 | 0.00 | 0.02 | 0.02 | 97 | 1008.5 | |
| 20260904084540 | 63 | 0.0 | 0.0 | 0.00 | 0.02 | 0.02 | 97 | 1008.4 | |
| 20260904083041 | 64 | 0.0 | 0.0 | 0.00 | 0.02 | 0.02 | 97 | 1008.5 | |
| 20260904080039 | 63 | 0.0 | 0.0 | 0.01 | 0.02 | 0.02 | 97 | 1007.9 | |
| 20260904074555 | 63 | 0.0 | 0.0 | 0.01 | 0.02 | 0.02 | 97 | 1008.1 | |
| 20260904073038 | 63 | 0.0 | 0.0 | 0.01 | 0.02 | 0.02 | 97 | 1008.0 | |
| 20260904070037 | 63 | 0.0 | 0.0 | 0.00 | 0.01 | 0.01 | 97 | 1007.8 | |
| 20260904064538 | 63 | 0.0 | 0.0 | 0.00 | 0.01 | 0.01 | 97 | 1008.4 | |
| 20260904063046 | 63 | 0.0 | 0.0 | 0.00 | 0.01 | 0.01 | 96 | 1008.4 | |
| 20260904060034 | 64 | 0.0 | 0.0 | 0.01 | 0.01 | 0.01 | 96 | 1008.4 | |
| 20260904054537 | 64 | 0.0 | 0.0 | 0.01 | 0.01 | 0.01 | 96 | 1008.3 | |
| 20260904053037 | 64 | 0.0 | 0.0 | 0.01 | 0.01 | 0.01 | 96 | 1008.3 | |
| 20260904050005 | 64 | 0.0 | 0.0 | 0.00 | 0.00 | 0.00 | 94 | 1008.9 | |
| 20260904044505 | 66 | 0.0 | 0.0 | 0.00 | 0.00 | 0.00 | 92 | 1010.4 | |
| 20260904043101 | 66 | 0.0 | 0.0 | 0.00 | 0.00 | 0.00 | 89 | 1008.1 | |
| 20260904041556 | 67 | 0.0 | 0.0 | 0.00 | 0.00 | 0.00 | 87 | 1008.0 | |
| 20260904040056 | 67 | 0.0 | 0.0 | 0.00 | 0.00 | 0.00 | 89 | 1009.3 | |
| 20260904034556 | 66 | 0.0 | 0.0 | 0.00 | 0.00 | 0.00 | 89 | 1006.9 | |
| 20260904033101 | 66 | 0.0 | 0.0 | 0.00 | 0.00 | 0.00 | 89 | 1006.8 | |
| 20260904031605 | 66 | 0.0 | 0.0 | 0.00 | 0.00 | 0.00 | 89 | 1007.5 | |
| 20260904030056 | 66 | 0.0 | 0.0 | 0.00 | 0.00 | 0.00 | 90 | 1007.6 | |
| 20260904024556 | 66 | 0.0 | 0.0 | 0.00 | 0.00 | 0.00 | 91 | 1006.9 | |
| 20260904023055 | 66 | 0.0 | 0.0 | 0.00 | 0.00 | 0.00 | 91 | 1007.2 | |
| 20260904021555 | 66 | 0.0 | 0.0 | 0.00 | 0.00 | 0.00 | 92 | 1007.5 | |
| 20260904020055 | 66 | 0.0 | 0.0 | 0.00 | 0.00 | 0.00 | 92 | 1007.2 | |
| 20260904014554 | 66 | 0.0 | 0.0 | 0.00 | 0.00 | 0.00 | 92 | 1007.4 | |
| 20260904013054 | 66 | 0.0 | 0.0 | 0.00 | 0.00 | 0.00 | 92 | 1007.6 | |
| 20260904011554 | 66 | 0.0 | 0.0 | 0.00 | 0.00 | 0.00 | 92 | 1007.6 | |
| 20260904010054 | 66 | 0.0 | 0.0 | 0.00 | 0.00 | 0.00 | 92 | 1007.5 | |
| 20260904004553 | 66 | 0.0 | 0.0 | 0.00 | 0.00 | 0.00 | 91 | 1007.2 | |
| 20260904003039 | 66 | 0.0 | 0.0 | 0.00 | 0.00 | 0.00 | 91 | 1007.3 | |
| 20260904001539 | 67 | 0.0 | 0.0 | 0.00 | 0.00 | 0.00 | 92 | 1006.9 | |
| 20260904000038 | 67 | 0.0 | 0.0 | 0.00 | 0.00 | 0.00 | 93 | 1006.8 | |
| 20260903234538 | 68 | 0.0 | 0.0 | 0.00 | 0.00 | 0.00 | 93 | 1006.9 | |
| 20260903233036 | 68 | 0.0 | 0.0 | 0.00 | 0.00 | 0.00 | 91 | 1007.5 | |
| 20260903231537 | 68 | 0.0 | 0.0 | 0.00 | 0.00 | 0.00 | 90 | 1007.2 | |
| 20260903230037 | 68 | 0.0 | 0.0 | 0.00 | 0.00 | 0.00 | 88 | 1007.4 | |
| 20260903224537 | 73 | 0.0 | 0.0 | 0.00 | 0.00 | 0.00 | 78 | 1006.9 | |
| 20260903223033 | 79 | 0.0 | 0.0 | 0.00 | 0.00 | 0.00 | 74 | 1006.4 | |
| 20260903221545 | 79 | 0.0 | 0.0 | 0.00 | 0.00 | 0.00 | 73 | 1005.0 | |
| 20260903220032 | 80 | 0.0 | 0.0 | 0.00 | 0.00 | 0.00 | 72 | 1005.0 | |
| 20260903214534 | 80 | 0.0 | 0.0 | 0.00 | 0.00 | 0.00 | 71 | 1004.9 | |
| 20260903213034 | 81 | 0.0 | 0.0 | 0.00 | 0.00 | 0.00 | 70 | 1004.9 | |
| 20260903211530 | 82 | 0.0 | 0.0 | 0.00 | 0.00 | 0.00 | 68 | 1005.0 |